This is the latest recevied weather packets stored in our database for station/object OE8NDR-11. If no packets are shown the sender has not sent any weather packets the latest 10 day(s).
| Time | Temp. | Humidity | Pressure | Rain* | Wind** | Luminosity | Snow |
|---|---|---|---|---|---|---|---|
| 1778164386 | 20.56° C | 63% | 1016.5 hPa | 0 mm | - | - | - |
| 1778164086 | 20.56° C | 63% | 1016.4 hPa | 0 mm | - | - | - |
| 1778163786 | 20.56° C | 63% | 1016.6 hPa | 0 mm | - | - | - |
| 1778163486 | 21.11° C | 62% | 1016.5 hPa | 0 mm | - | - | - |
| 1778163186 | 20.56° C | 65% | 1016.5 hPa | 0 mm | - | - | - |
| 1778162886 | 20.56° C | 63% | 1016.4 hPa | 0 mm | - | - | - |
| 1778162586 | 20.56° C | 63% | 1016.5 hPa | 0 mm | - | - | - |
| 1778162286 | 20.56° C | 64% | 1016.5 hPa | 0 mm | - | - | - |
| 1778161986 | 20.56° C | 64% | 1016.4 hPa | 0 mm | - | - | - |
| 1778161686 | 20.56° C | 64% | 1016.4 hPa | 0.25 mm | - | - | - |
| 1778161386 | 20.56° C | 66% | 1016.5 hPa | 0.25 mm | - | - | - |
| 1778161086 | 20.56° C | 65% | 1016.5 hPa | 0.25 mm | - | - | - |
| 1778160786 | 20.56° C | 66% | 1016.5 hPa | 0.25 mm | - | - | - |
| 1778160486 | 20° C | 65% | 1016.5 hPa | 0.25 mm | - | - | - |
| 1778160186 | 20° C | 65% | 1016.5 hPa | 0.25 mm | - | - | - |
| 1778159886 | 20° C | 65% | 1016.6 hPa | 0.25 mm | - | - | - |
| 1778159586 | 20° C | 66% | 1016.6 hPa | 0.25 mm | - | - | - |
| 1778159286 | 20° C | 65% | 1016.6 hPa | 0.25 mm | - | - | - |
| 1778158986 | 20° C | 65% | 1016.6 hPa | 0.25 mm | - | - | - |
| 1778158686 | 20.56° C | 64% | 1016.6 hPa | 0.25 mm | - | - | - |
| 1778158386 | 20.56° C | 63% | 1016.6 hPa | 0.25 mm | - | - | - |
| 1778158086 | 21.67° C | 61% | 1016.5 hPa | 0 mm | - | - | - |
| 1778157786 | 21.67° C | 57% | 1016.5 hPa | 0 mm | - | - | - |
| 1778157486 | 21.67° C | 56% | 1016.4 hPa | 0 mm | - | - | - |
| 1778157186 | 21.67° C | 58% | 1016.5 hPa | 0 mm | - | - | - |
* Rain latest hour (hover to see other rain measurements)
** Current wind speed in m/s (hover to see current wind gust speed)